DateTimeUTC,F1_A11,F1_S11,BsB_S11,BsG_S11,BsR_S11,BbsB_S11,BbsG_S11,BbsR_S11,BaB_A11,BaG_A11,BaR_A11,Tu_S11,T_S11,Uu_S11,U_S11,P_S11,T1_A11
2021-08-14T03:00:00Z,00000200,20000000,,,,,,,-000.48,-000.55,-000.06,18.7,25.0,19.3,13.1,0674.2,30.9
2021-08-14T03:01:00Z,00000200,20000000,,,,,,,-000.09,-000.33,-000.44,18.6,25.0,19.3,13.1,0674.2,30.9
2021-08-14T03:02:00Z,00000200,20000000,,,,,,,-000.25,-000.12,-000.04,18.6,25.0,19.4,13.1,0674.3,30.9
2021-08-14T03:03:00Z,00000200,60000000,,,,,,,0000.19,0000.25,0000.10,18.6,25.0,19.4,13.1,0674.3,30.9
2021-08-14T03:04:00Z,00000200,40000000,0000.55,0000.65,0000.72,-000.40,-000.02,0000.03,0000.11,-000.24,0000.07,18.7,24.8,19.2,13.2,0675.2,30.9
2021-08-14T03:05:00Z,00000200,00000000,0000.72,0000.82,0000.58,0000.69,-000.04,-000.13,0000.14,0000.16,-000.23,18.8,24.8,19.1,13.2,0675.3,30.9
2021-08-14T03:06:00Z,00000200,00000000,0000.85,0000.20,0000.75,0000.16,0000.23,0000.14,0000.28,0000.41,0000.07,18.8,24.8,19.2,13.3,0675.3,30.9
2021-08-14T03:07:00Z,00000200,00000000,0000.75,0000.72,0000.74,0000.24,0000.20,-000.13,-000.43,-000.51,0000.03,18.8,24.8,19.3,13.3,0675.3,30.9
2021-08-14T03:08:00Z,00000200,00000000,0000.48,0000.67,0000.45,-000.23,0000.14,-000.17,-000.08,0000.19,-000.29,18.8,24.8,19.3,13.4,0675.3,30.9
2021-08-14T03:09:00Z,00000200,00000000,0001.10,0000.67,0000.70,0000.13,0000.11,0000.13,0000.34,-000.07,0000.21,18.8,24.8,19.4,13.4,0675.3,30.9
2021-08-14T03:10:00Z,00000200,00000000,0000.47,0000.31,0000.37,-000.02,0000.03,-000.05,-000.14,-000.03,-000.16,18.8,24.8,19.4,13.5,0675.3,30.9
2021-08-14T03:11:00Z,00000200,00000000,0000.41,0000.39,0000.75,0000.37,-000.19,0000.15,-000.01,0000.08,0000.23,18.8,24.8,19.4,13.5,0675.2,30.9
2021-08-14T03:12:00Z,00000200,00000000,0000.83,0000.30,0000.24,-000.08,0000.36,0000.15,0000.25,0000.04,-000.03,18.8,24.8,19.7,13.6,0675.3,30.9
2021-08-14T03:13:00Z,00000200,00000000,0000.22,0000.46,0000.74,0000.01,0000.17,0000.08,0000.16,0000.13,-000.20,18.8,24.8,19.6,13.6,0675.3,30.9
2021-08-14T03:14:00Z,00000200,00000000,0001.63,0000.00,0000.45,-000.88,0000.09,0000.25,-000.15,0000.14,0000.11,18.8,24.7,19.6,13.6,0675.3,30.9
2021-08-14T03:15:00Z,00000200,00000000,0001.07,0000.24,0000.33,0000.09,-000.22,0000.09,0000.05,-000.30,-000.01,18.8,24.7,19.8,13.7,0675.2,30.9
2021-08-14T03:16:00Z,00000200,00000000,-000.23,0000.08,0000.44,0000.07,0000.03,0000.02,-000.18,-000.11,0000.13,18.8,24.7,19.7,13.7,0675.2,30.9
2021-08-14T03:17:00Z,00000200,00000000,0000.38,0000.16,0000.32,-000.15,0000.00,-000.03,0000.35,0000.36,-000.30,18.8,24.7,19.9,13.8,0675.2,30.9
2021-08-14T03:18:00Z,00000200,00000000,0000.19,0000.33,0000.13,-000.55,0000.13,0000.06,0000.06,-000.03,0000.25,18.8,24.8,20.1,14.0,0675.1,30.9
2021-08-14T03:19:00Z,00000200,00000000,0000.10,0000.16,-000.05,-000.28,0000.07,0000.42,-000.14,-000.39,-000.08,18.8,24.7,20.1,14.0,0675.1,30.9
2021-08-14T03:20:00Z,00000200,00000000,0000.46,0000.10,0000.09,-000.48,0000.24,-000.24,-000.07,0000.06,-000.12,18.8,24.7,20.3,14.1,0675.1,30.9
2021-08-14T03:21:00Z,00000200,00000000,0000.28,0000.27,0000.28,-000.11,0000.17,0000.31,-000.02,-000.01,-000.12,18.8,24.8,20.2,14.1,0675.1,30.9
2021-08-14T03:22:00Z,00000200,00000000,-000.10,0000.25,0000.03,-000.31,0000.16,0000.30,-000.22,-000.17,-000.21,18.8,24.8,20.3,14.2,0675.1,30.9
2021-08-14T03:23:00Z,00000200,00000000,0000.06,0000.32,-000.43,0000.11,0000.15,-000.13,0000.10,-000.46,0000.14,18.8,24.7,20.3,14.1,0675.1,30.9
2021-08-14T03:24:00Z,00000200,00000000,-000.38,0000.19,0000.24,0000.29,-000.19,-000.23,-000.11,0000.40,0000.01,18.8,24.7,20.3,14.1,0675.1,30.9
2021-08-14T03:25:00Z,00000200,00000000,-000.16,0000.16,0000.19,-000.68,0000.02,-000.05,-000.23,-000.81,-000.65,18.8,24.7,20.3,14.1,0675.1,30.9
2021-08-14T03:26:00Z,00000200,00000000,-000.58,0000.16,0000.19,0000.38,0000.22,0000.35,-000.31,0000.31,-000.40,18.8,24.7,20.4,14.2,0675.1,30.9
2021-08-14T03:27:00Z,00000200,00000000,0000.17,-000.23,0000.45,-000.20,0000.21,0000.15,0000.12,0000.07,0000.23,18.8,24.7,20.3,14.1,0675.1,30.9
2021-08-14T03:28:00Z,00000200,00000000,0000.44,0000.37,0000.30,0000.22,-000.04,0000.08,-000.63,-000.77,-000.58,18.8,24.7,20.2,14.1,0675.1,30.9
2021-08-14T03:29:00Z,00000200,00000000,0000.50,0000.23,0000.23,0000.04,0000.24,0000.03,0000.40,0000.32,0000.13,18.8,24.7,20.4,14.2,0675.1,30.9
2021-08-14T03:30:00Z,00000200,00000000,-000.03,0000.27,0000.36,0000.12,0000.27,0000.00,-000.30,-000.12,0000.11,18.8,24.7,20.3,14.1,0675.1,30.9
2021-08-14T03:31:00Z,00000200,00000000,0000.44,0000.37,0000.20,0000.29,0000.16,-000.02,-000.09,-000.10,0000.02,18.8,24.7,20.2,14.1,0675.1,30.9
2021-08-14T03:32:00Z,00000200,00000000,0000.25,0000.18,0000.24,0000.00,-000.07,-000.03,0000.12,-000.31,-000.40,18.8,24.7,20.2,14.1,0675.1,30.9
2021-08-14T03:33:00Z,00000200,00000000,-000.02,0000.21,0000.21,-000.12,0000.07,0000.08,-000.21,0000.06,-000.21,18.8,24.7,20.2,14.1,0675.0,30.9
2021-08-14T03:34:00Z,00000200,00000000,0000.58,0000.28,-000.04,0000.26,0000.04,-000.18,0000.02,-000.25,0000.02,18.8,24.7,20.5,14.3,0674.9,30.9
2021-08-14T03:35:00Z,00000200,00000000,-000.23,0000.07,0000.45,0000.08,0000.15,0000.07,0000.01,0000.17,0000.06,18.8,24.7,20.5,14.3,0675.0,30.9
2021-08-14T03:36:00Z,00000200,00000000,-000.21,-000.14,0000.16,-000.38,0000.19,-000.10,-000.38,-000.38,-000.61,18.8,24.7,20.4,14.3,0675.0,30.9
2021-08-14T03:37:00Z,00000200,00000000,-000.29,0000.23,0000.05,0000.40,0000.25,-000.04,-000.25,-000.07,-000.18,18.9,24.7,20.3,14.2,0675.1,30.9
2021-08-14T03:38:00Z,00000200,00000000,0000.07,-000.26,0000.30,0000.10,0000.00,0000.06,-000.12,-000.16,0000.27,18.9,24.7,20.5,14.3,0675.0,30.9
2021-08-14T03:39:00Z,00000200,00000000,0000.03,0000.24,0000.30,0000.37,0000.13,0000.02,0000.09,-000.26,-000.50,18.9,24.7,20.5,14.3,0675.1,30.9
2021-08-14T03:40:00Z,00000200,00000000,-000.01,0000.35,0000.20,0000.18,0000.29,-000.19,-000.45,-000.38,0000.14,18.9,24.7,20.4,14.2,0675.1,30.9
2021-08-14T03:41:00Z,00000200,00000000,-000.51,-000.32,0000.30,0000.39,0000.09,0000.05,0000.13,0000.29,-000.40,18.8,24.7,20.5,14.3,0675.1,30.9
2021-08-14T03:42:00Z,00000200,00000000,0000.00,-000.09,0000.27,-000.30,-000.03,0000.05,-000.36,-000.56,-000.11,18.8,24.7,20.4,14.2,0675.1,30.9
2021-08-14T03:43:00Z,00000200,00000000,0000.07,0000.07,0000.55,-000.09,0000.12,0000.12,0000.14,-000.22,-000.25,18.9,24.7,20.4,14.2,0675.2,30.9
2021-08-14T03:44:00Z,00000200,00000000,0000.36,0000.17,0000.27,0000.66,0000.23,-000.05,-000.20,0000.05,0000.19,18.9,24.7,20.4,14.2,0675.1,30.9
2021-08-14T03:45:00Z,00000200,00000000,-000.04,0000.16,0000.04,0000.56,0000.28,0000.19,-000.03,-000.31,-000.37,18.9,24.7,20.4,14.3,0675.2,30.9
2021-08-14T03:46:00Z,00000200,00000000,0000.87,-000.06,0000.08,-000.17,-000.11,0000.43,-000.25,-000.03,-000.07,18.8,24.7,20.3,14.2,0675.2,30.9
2021-08-14T03:47:00Z,00000200,00000000,-000.50,-000.08,0000.12,0000.03,0000.08,0000.03,-000.24,-000.01,-000.15,18.8,24.7,20.5,14.3,0675.2,30.9
2021-08-14T03:48:00Z,00000200,00000000,0000.03,0000.13,0000.47,-000.07,0000.10,-000.02,-000.34,-000.64,-000.43,18.8,24.7,20.4,14.3,0675.2,30.9
2021-08-14T03:49:00Z,00000200,00000000,0000.03,-000.32,0000.38,-000.35,0000.14,0000.08,0000.20,0000.09,0000.05,18.9,24.7,20.3,14.2,0675.2,30.9
2021-08-14T03:50:00Z,00000200,00000000,-000.17,0000.12,0000.27,-000.02,-000.20,-000.05,-000.38,-000.39,-000.64,18.9,24.7,20.5,14.3,0675.2,30.9
2021-08-14T03:51:00Z,00000200,00000000,0000.22,-000.09,0000.31,-000.27,-000.06,0000.13,0000.22,0000.06,0000.28,18.9,24.7,20.5,14.3,0675.2,30.9
2021-08-14T03:52:00Z,00000200,00000000,-000.23,-000.01,0000.20,0000.24,0000.13,0000.21,-000.23,-000.21,-000.53,18.9,24.8,20.6,14.3,0675.2,30.9
2021-08-14T03:53:00Z,00000200,00000000,0000.42,-000.17,0000.33,-000.67,-000.09,-000.02,-000.36,-000.00,0000.11,18.9,24.8,20.6,14.3,0675.2,30.9
2021-08-14T03:54:00Z,00000200,00000000,0000.28,-000.18,0000.22,0000.05,0000.19,0000.07,0000.12,0000.14,-000.01,18.9,24.7,20.5,14.3,0675.3,30.9
2021-08-14T03:55:00Z,00000200,00000000,-000.58,-000.24,0000.07,-000.21,0000.08,-000.06,-000.51,-000.63,-000.38,18.9,24.7,20.6,14.3,0675.2,30.9
2021-08-14T03:56:00Z,00000200,00000000,-000.15,0000.08,-000.08,0000.15,0000.01,0000.11,-000.19,-000.09,-000.18,18.9,24.8,20.5,14.3,0675.2,30.9
2021-08-14T03:57:00Z,00000200,40000000,,,,,,,0000.08,-000.38,0000.07,18.9,24.8,20.9,14.6,0675.2,30.9
2021-08-14T03:58:00Z,00000200,60000000,,,,,,,-000.53,-000.13,-000.58,18.7,24.9,20.6,14.0,0674.3,30.9
2021-08-14T03:59:00Z,00000200,20000000,,,,,,,-000.08,-000.22,-000.20,18.7,25.0,20.6,14.0,0674.3,30.9
